Date,TemperatureHighF,TemperatureAvgF,TemperatureLowF,DewpointHighF,DewpointAvgF,DewpointLowF,HumidityHigh,HumidityAvg,HumidityLow,PressureMaxIn,PressureMinIn,WindSpeedMaxMPH,WindSpeedAvgMPH,GustSpeedMaxMPH,PrecipitationSumIn
2013-5-1,88,75,70,78,72,70,100,92,61,29.93,29.85,12,1,12,0.26
2013-5-2,81,73,69,77,72,69,100,97,77,29.88,29.72,12,2,16,1.66
2013-5-3,88,75,68,74,70,66,100,87,52,29.76,29.62,11,2,11,0.06
2013-5-4,88,77,69,73,69,65,100,79,50,29.75,29.63,16,4,16,0.01
2013-5-5,85,75,67,70,64,55,100,73,41,29.87,29.70,15,3,15,0.00
2013-5-6,86,74,60,66,61,56,95,67,41,29.95,29.85,12,2,12,0.00
2013-5-7,86,74,64,67,62,57,98,68,39,30.00,29.91,15,3,15,0.00
2013-5-8,88,75,62,67,62,55,100,68,35,30.08,29.98,11,1,11,0.00
2013-5-9,92,78,66,75,68,59,98,74,47,30.07,29.99,11,1,11,0.00
2013-5-10,92,82,73,76,73,69,96,76,49,30.06,29.96,14,2,14,0.00
2013-5-11,94,80,73,79,74,70,100,84,54,30.00,29.91,11,1,11,0.21
2013-5-12,93,79,72,78,73,68,100,85,45,30.00,29.88,11,1,11,0.82
2013-5-13,90,79,71,77,71,66,100,79,55,30.02,29.93,13,2,13,0.01
2013-5-14,85,77,70,69,63,57,90,63,43,30.11,30.00,14,3,14,0.00
2013-5-15,79,68,65,66,62,59,95,82,53,30.11,30.06,11,1,11,0.00
2013-5-16,76,75,74,65,64,64,73,70,67,29.99,29.98,8,2,8,0.00
2013-5-17,93,79,69,73,70,64,97,74,42,30.02,29.95,13,2,13,0.00
2013-5-18,87,78,72,80,73,70,100,83,63,30.03,29.96,13,1,13,0.25
2013-5-19,89,80,71,75,71,67,100,76,51,30.03,29.93,13,2,13,0.00
2013-5-20,79,76,70,77,74,70,100,94,81,30.01,29.91,13,1,13,3.04
2013-5-21,85,75,70,77,72,70,100,91,65,29.99,29.86,15,2,15,0.50
2013-5-22,87,76,72,79,74,71,100,95,71,29.90,29.83,17,1,17,0.86
2013-5-23,96,82,72,78,73,65,100,79,39,29.94,29.85,14,2,14,0.00
2013-5-24,95,82,74,78,75,67,100,80,44,30.00,29.88,14,2,14,0.08
2013-5-25,89,81,75,77,70,65,99,72,47,30.09,29.97,15,4,15,0.00
2013-5-26,87,79,70,69,66,63,89,65,47,30.11,30.04,15,4,15,0.00
2013-5-27,86,80,74,74,71,65,87,74,62,30.09,29.99,19,5,19,0.00
2013-5-28,84,79,75,77,74,72,100,86,71,30.04,29.97,16,5,16,0.38
2013-5-29,81,76,72,78,74,71,100,94,80,30.03,29.96,20,4,20,0.99
2013-5-30,85,79,74,77,74,71,100,84,71,30.00,29.93,20,6,20,0.06
2013-5-31,88,79,74,78,76,74,100,89,65,29.99,29.93,14,3,14,0.41